Location: Doschendorf
(50.0069°N, 11.0602°E)
Time: 01:53:01
(UTC+00:00)

Cosmos 2346 Rocket - Pass Details

Date: 17 November 2019
Orbit: 935 x 981 km, 82.9° (Epoch: 08 December)

Event Time Altitude Azimuth Distance (km) Brightness Sun altitude
Rises 17:27:06 0° 178° (S) 3,662 7.6 -18.6°
Reaches altitude 10° 17:29:37 10° 175° (S) 2,714 6.9 -19.0°
Maximum altitude 17:35:46 67° 95° (E) 1,044 4.4 -20.0°
Drops below altitude 10° 17:41:54 10° 14° (NNE) 2,703 6.6 -21.0°
Sets 17:44:24 0° 12° (NNE) 3,646 7.3 -21.4°
